Time,TemperatureF,DewpointF,PressureIn,WindDirection,WindDirectionDegrees,WindSpeedMPH,WindSpeedGustMPH,Humidity,HourlyPrecipIn,Conditions,Clouds,dailyrainin,SoftwareType,DateUTC
2013-08-24 00:24:00,67.0,58.0,-100.00,ENE,75,2.0,4.0,72,-99.99,,,-99.99,,2013-08-24 04:24:00,
2013-08-24 00:53:00,66.0,58.0,-100.00,NE,55,3.0,5.0,76,-99.99,,,-99.99,,2013-08-24 04:53:00,
2013-08-24 01:23:00,64.0,58.0,-100.00,NE,45,3.0,5.0,80,-99.99,,,-99.99,,2013-08-24 05:23:00,
2013-08-24 01:53:00,64.0,58.0,-100.00,North,0,1.0,4.0,81,-99.99,,,-99.99,,2013-08-24 05:53:00,
2013-08-24 02:22:00,65.0,58.0,-100.00,NE,50,3.0,4.0,78,-99.99,,,-99.99,,2013-08-24 06:22:00,
2013-08-24 02:52:00,63.0,59.0,-100.00,NE,50,4.0,6.0,85,-99.99,,,-99.99,,2013-08-24 06:52:00,
2013-08-24 03:22:00,64.0,60.0,-100.00,NE,55,4.0,4.0,88,-99.99,,,-99.99,,2013-08-24 07:22:00,
2013-08-24 03:53:00,63.0,60.0,-100.00,NE,50,3.0,4.0,91,-99.99,,,-99.99,,2013-08-24 07:53:00,
2013-08-24 04:22:00,63.0,61.0,-100.00,NE,40,4.0,5.0,93,-99.99,,,-99.99,,2013-08-24 08:22:00,
2013-08-24 04:52:00,64.0,62.0,-100.00,NNE,30,1.0,2.0,92,-99.99,,,-99.99,,2013-08-24 08:52:00,
2013-08-24 05:22:00,63.0,61.0,-100.00,NE,45,2.0,3.0,94,-99.99,,,-99.99,,2013-08-24 09:22:00,
2013-08-24 05:44:00,64.0,62.0,-100.00,NE,35,1.0,2.0,94,-99.99,,,-99.99,,2013-08-24 09:44:00,
2013-08-24 05:53:00,64.0,62.0,-100.00,NNE,25,2.0,2.0,94,-99.99,,,-99.99,,2013-08-24 09:53:00,
2013-08-24 06:23:00,63.0,62.0,-100.00,NE,40,2.0,3.0,96,-99.99,,,-99.99,,2013-08-24 10:23:00,
2013-08-24 06:53:00,63.0,62.0,-100.00,ESE,105,1.0,3.0,97,-99.99,,,-99.99,,2013-08-24 10:53:00,
2013-08-24 07:22:00,58.0,57.0,-100.00,WNW,295,4.0,6.0,98,-99.99,,,-99.99,,2013-08-24 11:22:00,
2013-08-24 07:52:00,60.0,59.0,-100.00,NW,325,4.0,5.0,97,-99.99,,,-99.99,,2013-08-24 11:52:00,
2013-08-24 08:02:00,60.0,59.0,-100.00,NW,325,4.0,5.0,97,-99.99,,,-99.99,,2013-08-24 12:02:00,
2013-08-24 08:21:00,62.0,60.0,-100.00,NW,325,4.0,7.0,94,-99.99,,,-99.99,,2013-08-24 12:21:00,
2013-08-24 08:52:00,68.0,64.0,-100.00,East,100,1.0,3.0,87,-99.99,,,-99.99,,2013-08-24 12:52:00,
2013-08-24 09:22:00,70.0,64.0,-100.00,ESE,105,2.0,4.0,81,-99.99,,,-99.99,,2013-08-24 13:22:00,
2013-08-24 09:52:00,72.0,63.0,-100.00,East,95,3.0,6.0,72,-99.99,,,-99.99,,2013-08-24 13:52:00,
2013-08-24 10:22:00,74.0,60.0,-100.00,ESE,110,3.0,5.0,60,-99.99,,,-99.99,,2013-08-24 14:22:00,
2013-08-24 10:52:00,76.0,58.0,-100.00,ESE,115,3.0,4.0,52,-99.99,,,-99.99,,2013-08-24 14:52:00,
2013-08-24 11:22:00,77.0,59.0,-100.00,ESE,115,3.0,6.0,52,-99.99,,,-99.99,,2013-08-24 15:22:00,
2013-08-24 11:54:00,78.0,58.0,-100.00,East,80,6.0,9.0,50,-99.99,,,-99.99,,2013-08-24 15:54:00,
2013-08-24 12:23:00,79.0,58.0,-100.00,ESE,105,4.0,9.0,47,-99.99,,,-99.99,,2013-08-24 16:23:00,
2013-08-24 12:53:00,80.0,58.0,-100.00,ESE,105,6.0,9.0,47,-99.99,,,-99.99,,2013-08-24 16:53:00,
2013-08-24 13:23:00,81.0,55.0,-100.00,NE,55,4.0,9.0,41,-99.99,,,-99.99,,2013-08-24 17:23:00,
2013-08-24 13:52:00,81.0,58.0,-100.00,ESE,110,7.0,10.0,45,-99.99,,,-99.99,,2013-08-24 17:52:00,
2013-08-24 14:22:00,81.0,60.0,-100.00,ENE,70,8.0,11.0,49,-99.99,,,-99.99,,2013-08-24 18:22:00,
2013-08-24 14:53:00,82.0,59.0,-100.00,East,85,7.0,12.0,46,-99.99,,,-99.99,,2013-08-24 18:53:00,
2013-08-24 15:22:00,81.0,58.0,-100.00,East,95,9.0,11.0,46,-99.99,,,-99.99,,2013-08-24 19:22:00,
2013-08-24 15:52:00,82.0,57.0,-100.00,ENE,75,6.0,11.0,43,-99.99,,,-99.99,,2013-08-24 19:52:00,
2013-08-24 16:22:00,83.0,56.0,-100.00,East,100,4.0,10.0,39,-99.99,,,-99.99,,2013-08-24 20:22:00,
2013-08-24 16:52:00,80.0,60.0,-100.00,ENE,65,5.0,9.0,49,-99.99,,,-99.99,,2013-08-24 20:52:00,
2013-08-24 17:22:00,83.0,57.0,-100.00,SE,130,6.0,7.0,41,-99.99,,,-99.99,,2013-08-24 21:22:00,
2013-08-24 17:54:00,82.0,58.0,-100.00,ESE,105,4.0,11.0,44,-99.99,,,-99.99,,2013-08-24 21:54:00,
2013-08-24 18:24:00,79.0,60.0,-100.00,ENE,65,5.0,12.0,53,-99.99,,,-99.99,,2013-08-24 22:24:00,
2013-08-24 18:53:00,78.0,60.0,-100.00,NE,45,7.0,13.0,53,-99.99,,,-99.99,,2013-08-24 22:53:00,
2013-08-24 19:22:00,76.0,60.0,-100.00,ENE,70,11.0,15.0,56,-99.99,,,-99.99,,2013-08-24 23:22:00,
2013-08-24 19:53:00,75.0,60.0,-100.00,East,80,7.0,12.0,60,-99.99,,,-99.99,,2013-08-24 23:53:00,
2013-08-24 20:22:00,72.0,60.0,-100.00,East,80,6.0,8.0,65,-99.99,,,-99.99,,2013-08-25 00:22:00,
2013-08-24 20:52:00,70.0,60.0,-100.00,ENE,75,7.0,10.0,69,-99.99,,,-99.99,,2013-08-25 00:52:00,
2013-08-24 21:22:00,68.0,60.0,-100.00,East,80,7.0,8.0,75,-99.99,,,-99.99,,2013-08-25 01:22:00,
2013-08-24 21:52:00,68.0,60.0,-100.00,East,90,6.0,9.0,77,-99.99,,,-99.99,,2013-08-25 01:52:00,
2013-08-24 22:22:00,66.0,60.0,-100.00,East,95,7.0,8.0,79,-99.99,,,-99.99,,2013-08-25 02:22:00,
2013-08-24 22:52:00,66.0,61.0,-100.00,ESE,110,5.0,6.0,82,-99.99,,,-99.99,,2013-08-25 02:52:00,
2013-08-24 23:23:00,66.0,60.0,-100.00,ESE,110,6.0,8.0,81,-99.99,,,-99.99,,2013-08-25 03:23:00,
2013-08-24 23:54:00,66.0,60.0,-100.00,ESE,115,6.0,9.0,81,-99.99,,,-99.99,,2013-08-25 03:54:00,